Location: ??????
(55.6130°N, 37.7882°E)
Time: 10:36:54
(UTC+00:00)

Cosmos 2322 Rocket - Pass Details

Date: 14 April 2024
Orbit: 833 x 849 km, 71.0° (Epoch: 18 May)

Event Time Altitude Azimuth Distance (km) Brightness Sun altitude
Exits shadow 00:19:15 19° 258° (WSW) 1,899 3.6 -15.9°
Maximum altitude 00:22:52 40° 319° (NW) 1,213 3.0 -15.5°
Drops below altitude 10° 00:28:09 10° 28° (NNE) 2,456 5.8 -15.0°
Sets 00:30:46 0° 36° (NE) 3,393 7.1 -14.7°
